User: anonymous   Login
Location: Pella
(41.4080°N, 92.9160°W)
Time: 14:23:00
(UTC-05:00)
Language:

Iridium 91 - Orbit

View from above orbital plane
View from above orbital plane
View from above satellite
View from above satellite

Ground track
Ground track

The orbit data is extracted from the following two-line orbital elements,

1 27372U 02005A   18147.46463731  .00000049  00000-0  10339-4 0  9996
2 27372  86.3953 143.3225 0002355  73.4523 286.6931 14.34213615860971
Epoch (UTC): 27 May 2018 11:09:04
Eccentricity: 0.0002355
inclination: 86.3953°
perigee height: 776 km
apogee height: 779 km
right ascension of ascending node: 143.3225°
argument of perigee: 73.4523°
revolutions per day: 14.34213615
mean anomaly at epoch: 286.6931°
orbit number at epoch: 86097

The dashed part of the orbit path shows where the satellite is in the earth's shadow,  

DLR